Ord, NE

10:42 AM CDT on August 28, 2016 (GMT -0500)
Sharp

Weather History for KODX - April, 2012

Change the Weather History Date:

Saturday, April 7, 2012

  Actual Average Record
Temperature  
Mean Temperature 44 °F 46 °F  
Max Temperature 59 °F 59 °F 75 °F (1999)
Min Temperature 28 °F 33 °F 11 °F (2009)
Degree Days  
Heating Degree Days 21 19  
Month to date heating degree days 89 140  
Since 1 July heating degree days 5316 6003  
Cooling Degree Days 0 0  
Month to date cooling degree days 2 0  
Year to date cooling degree days 17 0  
Moisture  
Dew Point 37 °F    
Average Humidity 63    
Maximum Humidity 100    
Minimum Humidity 25    
Precipitation  
Precipitation T in 0.07 in 1.12 in (2003)
Month to date precipitation 0.10 0.39  
Year to date precipitation 2.20 2.65  
Sea Level Pressure  
Sea Level Pressure 30.15 in    
Wind  
Wind Speed 12 mph (WNW)    
Max Wind Speed 24 mph    
Max Gust Speed 37 mph    
Visibility 8 miles    
Events Fog    
T = Trace of Precipitation, MM = Missing Value Source: NWS Daily Summary

Daily Weather History Graph

Daily Weather History Graph

Search for Another Location

Airport or City:

Trip Planner

Search our weather history database for the weather conditions in past years. The results will help you decide how hot, cold, wet, or windy it might be!

Date:

Astronomy

Apr. 07, 2012 Rise Set
Actual Time 7:07 AM CDT 8:08 PM CDT
Civil Twilight 6:39 AM CDT 8:36 PM CDT
Nautical Twilight 6:05 AM CDT 9:10 PM CDT
Astronomical Twilight 5:30 AM CDT 9:45 PM CDT
Moon 9:46 PM CDT (4/7) 7:19 AM CDT (4/7)
Length of Visible Light 13h 57m
Length of Day
13h 00m
Full, 99% of the Moon is Illuminated
Apr 7
Full
Apr 13
Last Quarter
Apr 21
New
Apr 29
First Quarter
May 5
Full

Hourly Weather History & Observations

Time (CDT) Temp. Windchill Dew Point Humidity Pressure Visibility Wind Dir Wind Speed Gust Speed Precip Events Conditions
12:53 AM 52.0 °F - 50.0 °F 93% 29.96 in 6.0 mi South 9.2 mph - N/A   Overcast
1:36 AM 51.8 °F - 50.0 °F 94% 29.95 in 6.0 mi South 6.9 mph - 0.00 in   Overcast
1:53 AM 51.8 °F - 50.0 °F 94% 29.95 in 7.0 mi South 6.9 mph - N/A   Overcast
2:10 AM 51.8 °F - 50.0 °F 94% 29.96 in 7.0 mi SSW 8.1 mph - N/A   Overcast
2:49 AM 51.8 °F - 48.2 °F 88% 29.96 in 6.0 mi Calm Calm - 0.00 in   Overcast
2:53 AM 51.1 °F - 48.9 °F 92% 29.97 in 6.0 mi Calm Calm - 0.00 in   Overcast
3:29 AM 51.8 °F - 50.0 °F 94% 29.98 in 6.0 mi Calm Calm - N/A   Overcast
3:53 AM 50.0 °F - 48.9 °F 96% 30.00 in 6.0 mi SSW 3.5 mph - N/A   Overcast
4:25 AM 48.2 °F - 48.2 °F 100% 30.00 in 2.5 mi Calm Calm - N/A   Mostly Cloudy
4:34 AM 48.2 °F - 46.4 °F 93% 30.01 in 1.0 mi Calm Calm - N/A   Scattered Clouds
4:41 AM 48.2 °F - 46.4 °F 93% 30.01 in 0.8 mi SW 3.5 mph - N/A   Mist
4:53 AM 46.0 °F 44.8 °F 45.0 °F 96% 30.02 in 0.5 mi SW 3.5 mph - N/A Fog Fog
5:05 AM 42.8 °F 39.3 °F 42.8 °F 100% 30.03 in 1.2 mi WNW 5.8 mph - N/A   Partly Cloudy
5:13 AM 44.6 °F 40.2 °F 42.8 °F 93% 30.03 in 7.0 mi NW 8.1 mph - N/A   Partly Cloudy
5:53 AM 46.9 °F - 46.0 °F 97% 30.07 in 10.0 mi NW 11.5 mph - N/A   Mostly Cloudy
6:34 AM 46.4 °F 40.1 °F 42.8 °F 87% 30.08 in 10.0 mi NW 15.0 mph 23.0 mph N/A   Mostly Cloudy
6:53 AM 44.1 °F 36.5 °F 39.0 °F 82% 30.12 in 10.0 mi NW 17.3 mph 27.6 mph N/A   Mostly Cloudy
7:00 AM 42.8 °F 34.8 °F 37.4 °F 81% 30.11 in 10.0 mi NW 17.3 mph 24.2 mph N/A   Scattered Clouds
7:53 AM 39.9 °F 31.1 °F 30.9 °F 70% 30.19 in 10.0 mi NNW 17.3 mph 26.5 mph N/A   Clear
8:53 AM 42.1 °F 34.2 °F 32.0 °F 67% 30.23 in 10.0 mi NNW 16.1 mph - N/A   Clear
9:53 AM 46.0 °F 38.8 °F 32.0 °F 58% 30.26 in 10.0 mi NNW 18.4 mph 25.3 mph N/A   Clear
10:53 AM 48.9 °F - 30.9 °F 50% 30.29 in 10.0 mi North 20.7 mph - N/A   Clear
11:53 AM 51.1 °F - 30.0 °F 44% 30.29 in 10.0 mi WNW 19.6 mph 29.9 mph N/A   Clear
12:53 PM 54.0 °F - 30.9 °F 41% 30.30 in 10.0 mi NW 18.4 mph 26.5 mph N/A   Clear
1:53 PM 55.0 °F - 30.9 °F 40% 30.30 in 10.0 mi NW 20.7 mph 29.9 mph N/A   Scattered Clouds
2:53 PM 55.9 °F - 27.0 °F 33% 30.30 in 10.0 mi NNW 21.9 mph 32.2 mph N/A   Scattered Clouds
3:53 PM 57.9 °F - 27.0 °F 31% 30.29 in 10.0 mi NW 18.4 mph 25.3 mph N/A   Partly Cloudy
4:53 PM 57.9 °F - 25.0 °F 28% 30.30 in 10.0 mi NW 16.1 mph 24.2 mph N/A   Partly Cloudy
5:53 PM 57.9 °F - 23.0 °F 26% 30.30 in 10.0 mi NW 13.8 mph 24.2 mph N/A   Clear
6:53 PM 55.9 °F - 23.0 °F 28% 30.32 in 10.0 mi NNW 15.0 mph - N/A   Clear
7:53 PM 50.0 °F - 24.1 °F 36% 30.33 in 10.0 mi NNW 6.9 mph - N/A   Clear
8:53 PM 42.1 °F - 23.0 °F 47% 30.35 in 10.0 mi Calm Calm - N/A   Clear
9:53 PM 34.0 °F 29.8 °F 25.0 °F 70% 30.37 in 10.0 mi SW 4.6 mph - N/A   Clear
10:53 PM 34.0 °F 28.0 °F 25.0 °F 70% 30.37 in 10.0 mi SSW 6.9 mph - N/A   Clear
11:53 PM 30.0 °F - 23.0 °F 75% 30.37 in 10.0 mi Calm Calm - N/A   Clear